Regional Weather Roundup
Issued by NWS

Home | Current Version | Previous Version | Graphics & Text | Print | Product List | Glossary On
Versions: 1 2 3 4 5 6 7 8 9 10 11 12 13 14 15 16 17 18 19 20 21 22 23 24 25 26 27 28 29 30 31 32 33 34 35 36 37 38 39 40 41 42 43 44 45 46 47 48 49 50
000
ASUS43 KLOT 171158
RWRIL

ILLINOIS REGIONAL WEATHER ROUNDUP
NATIONAL WEATHER SERVICE CHICAGO/ROMEOVILLE IL
700 AM CDT THU APR 17 2014

NOTE: "FAIR" INDICATES FEW OR NO CLOUDS BELOW 12,000 FEET WITH NO
SIGNIFICANT WEATHER AND/OR OBSTRUCTIONS TO VISIBILITY.

* THESE STATIONS ARE NOT UNDER NWS QUALITY CONTROL. THEY ALSO MAY NOT
  REPORT WEATHER SUCH AS PRECIPITATION OR FOG.

ILZ001-002-007-009-015-016-024-171300-
NORTHWEST ILLINOIS

CITY           SKY/WX    TMP DP  RH WIND       PRES   REMARKS
MOLINE         CLOUDY    41  34  76 W13       30.12R
6HR MIN TEMP:  41; 6HR MAX TEMP:  47;

$$

ILZ003-004-008-010-011-017-018-171300-
NORTH CENTRAL ILLINOIS

CITY           SKY/WX    TMP DP  RH WIND       PRES   REMARKS
ROCKFORD       NOT AVBL
$$

ILZ005-006-012>014-019>023-171300-
NORTHEAST ILLINOIS

CITY           SKY/WX    TMP DP  RH WIND       PRES   REMARKS
CHICAGO-OHARE  MOCLDY    43  25  49 S13       30.12R
6HR MIN TEMP:  40; 6HR MAX TEMP:  44;

CHICAGO-MIDWAY MOCLDY    43  26  51 S13       30.14R
6HR MIN TEMP:  43; 6HR MAX TEMP:  44;

AURORA         PTCLDY    39  29  67 S13       30.12R WCI  31
6HR MIN TEMP:  39; 6HR MAX TEMP:  43;

WAUKEGAN       MOCLDY    43  26  51 S12       30.11R
6HR MIN TEMP:  40; 6HR MAX TEMP:  43;

DUPAGE AIRPORT PTCLDY    39  28  64 S15       30.11R WCI  31
6HR MIN TEMP:  38; 6HR MAX TEMP:  43;

WHEELING       CLOUDY    43  27  53 S16       30.13R
6HR MIN TEMP:  42; 6HR MAX TEMP:  44;

NORTHERLY ISL    N/A     43  26  51 S13         N/A
$$

LMZ740>746-171300-
SOUTHERN LAKE MICHIGAN

STATION/POSITION SKY/WX   TEMP    WIND        PRES    VSBY  WAVE
                          AIR SEA DIR/SP/G                  HT/PER
                          (F)     (DEG/KT/KT) (MB)    (MI)  (FT/S)
WAUKEGAN HARBOR            43     170/ 15/ 17 1020.7R
HARRISON CRIB              42     170/ 25/ 27   N/A
BURNHAM HARBOR             42     160/ 12/ 16   N/A
CALUMET HARBOR             42     170/ 11/ 15 1021.5R
MICHIGAN CITY              40     130/ 14/ 19   N/A
$$

ILZ025>027-034>036-040-047-049-050-058-095>099-171300-
WEST-CENTRAL ILLINOIS

CITY           SKY/WX    TMP DP  RH WIND       PRES   REMARKS
$$

ILZ028>032-037-038-041>044-048-051>054-059>061-171300-
CENTRAL ILLINOIS

CITY           SKY/WX    TMP DP  RH WIND       PRES   REMARKS
PEORIA         NOT AVBL
SPRINGFIELD    CLEAR     44  30  57 S12       30.17R
6HR MIN TEMP:  44; 6HR MAX TEMP:  47;

TAYLORVILLE    NOT AVBL
$$

ILZ033-039-045-046-055>057-062-063-171300-
EAST-CENTRAL ILLINOIS

CITY           SKY/WX    TMP DP  RH WIND       PRES   REMARKS
CHAMPAIGN      CLEAR     40  30  67 S14       30.18R
$$

ILZ079-100>102-171300-
SOUTHWEST ILLINOIS

CITY           SKY/WX    TMP DP  RH WIND       PRES   REMARKS
ALTON          MOCLDY    36  32  87 S8        30.19R WCI  29
CAHOKIA*       PTCLDY    41  32  70 S3        30.20R
$$

ILZ064>066-069>071-074>076-080>082-084>086-088>090-092>094-171300-
SOUTH-CENTRAL ILLINOIS

CITY           SKY/WX    TMP DP  RH WIND       PRES   REMARKS
CARBONDALE     CLEAR     33  31  92 SE5       30.24R WCI  29
6HR MIN TEMP:  32; 6HR MAX TEMP:  43;

MARION         PTCLDY    36  32  87 S6        30.25R WCI  31
$$

ILZ067-068-072-073-078-083-087-091-171300-
SOUTHEAST ILLINOIS

CITY           SKY/WX    TMP DP  RH WIND       PRES   REMARKS
$$

ABBREVIATIONS USED IN REMARKS
   TC - TEMPERATURE IN CELSIUS
  WCI - WIND CHILL INDEX
   HX - HEAT INDEX
  VSB - VISIBILITY
$$




USA.gov is the U.S. government's official web portal to all federal, state and local government web resources and services.